PGT8PC LTFJ-LTBS

Flight info

Callsign PGT8PC
Flight time 0h 52m
Altitude 36000
Route ROXUK1J/06L ROXUK UT409 NUMTI UT241 DEN/N0428F350 UW87 LAVTA/N0383F270 W87 ATSAL
Aircraft A320/M-SDE3FGHIRWY/LB1

Departure

Time 2026-04-21 18:49
Airport Istanbul Sabiha Gökçen International Airport (LTFJ)

Arrival

Time 2026-04-21 19:41
Airport Dalaman International Airport (LTBS)
Time Latitude Longitude Altitude Speed Heading
2026-04-21 18:26 40.90337 29.31374 327 ft 0 kts 154°
2026-04-21 18:36 40.90338 29.31373 326 ft 1 kts 154°
2026-04-21 18:36 40.90353 29.31364 326 ft 3 kts 156°
2026-04-21 18:36 40.90372 29.31354 326 ft 3 kts 162°
2026-04-21 18:37 40.90391 29.31347 326 ft 3 kts 174°
2026-04-21 18:37 40.90410 29.31348 326 ft 3 kts 206°
2026-04-21 18:37 40.90420 29.31358 326 ft 1 kts 244°
2026-04-21 18:37 40.90422 29.31363 326 ft 0 kts 244°
2026-04-21 18:39 40.90421 29.31362 326 ft 0 kts 244°
2026-04-21 18:39 40.90420 29.31357 326 ft 1 kts 244°
2026-04-21 18:39 40.90416 29.31348 326 ft 1 kts 244°
2026-04-21 18:39 40.90411 29.31334 326 ft 3 kts 244°
2026-04-21 18:40 40.90401 29.31305 326 ft 4 kts 244°
2026-04-21 18:40 40.90385 29.31261 326 ft 6 kts 244°
2026-04-21 18:40 40.90371 29.31223 326 ft 7 kts 244°
2026-04-21 18:40 40.90339 29.31137 326 ft 8 kts 244°
2026-04-21 18:41 40.90309 29.31058 326 ft 11 kts 244°
2026-04-21 18:41 40.90276 29.30965 326 ft 11 kts 244°
2026-04-21 18:41 40.90237 29.30873 326 ft 10 kts 211°
2026-04-21 18:41 40.90182 29.30893 326 ft 9 kts 149°
2026-04-21 18:42 40.90125 29.30933 326 ft 10 kts 155°
2026-04-21 18:42 40.90070 29.30926 326 ft 7 kts 250°
2026-04-21 18:42 40.90047 29.30861 326 ft 9 kts 243°
2026-04-21 18:42 40.90016 29.30778 326 ft 12 kts 245°
2026-04-21 18:43 40.89977 29.30668 326 ft 14 kts 243°
2026-04-21 18:43 40.89931 29.30538 326 ft 17 kts 247°
2026-04-21 18:43 40.89875 29.30387 326 ft 20 kts 245°
2026-04-21 18:43 40.89810 29.30213 326 ft 22 kts 244°
2026-04-21 18:44 40.89739 29.30020 326 ft 25 kts 242°
2026-04-21 18:44 40.89661 29.29809 326 ft 27 kts 243°
2026-04-21 18:44 40.89576 29.29584 326 ft 27 kts 242°
2026-04-21 18:44 40.89504 29.29382 326 ft 24 kts 243°
2026-04-21 18:45 40.89468 29.29281 326 ft 9 kts 243°
2026-04-21 18:45 40.89417 29.29242 326 ft 9 kts 163°
2026-04-21 18:45 40.89359 29.29274 326 ft 9 kts 153°
2026-04-21 18:45 40.89304 29.29311 326 ft 9 kts 150°
2026-04-21 18:46 40.89288 29.29376 326 ft 8 kts 66°
2026-04-21 18:46 40.89293 29.29390 326 ft 0 kts 63°
2026-04-21 18:48 40.89341 29.29515 327 ft 50 kts 64°
2026-04-21 18:48 40.89603 29.30230 328 ft 118 kts 58°
2026-04-21 18:49 40.89986 29.31276 488 ft 136 kts 52°
2026-04-21 18:49 40.90449 29.32509 468 ft 161 kts 51°
2026-04-21 18:49 40.90799 29.33394 642 ft 165 kts 56°
2026-04-21 18:49 40.91515 29.35224 1692 ft 167 kts 58°
2026-04-21 18:50 40.92043 29.36574 2608 ft 162 kts 59°
2026-04-21 18:50 40.92593 29.37970 2906 ft 184 kts 60°
2026-04-21 18:50 40.92959 29.39052 3048 ft 197 kts 70°
2026-04-21 18:50 40.93159 29.41000 3251 ft 228 kts 95°
2026-04-21 18:51 40.92577 29.42973 3852 ft 241 kts 126°
2026-04-21 18:51 40.91269 29.44434 4365 ft 256 kts 152°
2026-04-21 18:51 40.89580 29.45380 5013 ft 269 kts 157°
2026-04-21 18:51 40.87873 29.46394 5953 ft 270 kts 156°
2026-04-21 18:52 40.86136 29.47364 6903 ft 268 kts 159°
2026-04-21 18:52 40.84425 29.48346 7879 ft 267 kts 159°
2026-04-21 18:52 40.82709 29.49360 8637 ft 275 kts 158°
2026-04-21 18:52 40.80977 29.50519 9338 ft 283 kts 156°
2026-04-21 18:53 40.79204 29.51729 9983 ft 291 kts 156°
2026-04-21 18:53 40.77409 29.53042 10659 ft 300 kts 150°
2026-04-21 18:53 40.75817 29.54898 11073 ft 321 kts 134°
2026-04-21 18:53 40.74370 29.57305 11063 ft 351 kts 129°
2026-04-21 18:54 40.72852 29.60062 10753 ft 386 kts 129°
2026-04-21 18:54 40.71223 29.62971 10910 ft 404 kts 129°
2026-04-21 18:54 40.69474 29.66040 10975 ft 421 kts 134°
2026-04-21 18:54 40.67377 29.68493 12250 ft 387 kts 152°
2026-04-21 18:55 40.65827 29.69402 13274 ft 354 kts 171°
2026-04-21 18:55 40.62719 29.69638 14562 ft 341 kts 187°
2026-04-21 18:55 40.60274 29.69366 15081 ft 346 kts 191°
2026-04-21 18:55 40.57893 29.68993 15870 ft 344 kts 192°
2026-04-21 18:56 40.55508 29.68709 16678 ft 344 kts 187°
2026-04-21 18:56 40.53104 29.68693 17355 ft 348 kts 183°
2026-04-21 18:56 40.50677 29.68821 18013 ft 349 kts 184°
2026-04-21 18:56 40.48239 29.68822 18531 ft 354 kts 186°
2026-04-21 18:57 40.45728 29.68734 18774 ft 368 kts 186°
2026-04-21 18:57 40.43119 29.68648 18969 ft 382 kts 185°
2026-04-21 18:57 40.40428 29.68607 19284 ft 391 kts 184°
2026-04-21 18:57 40.37700 29.68603 19845 ft 392 kts 184°
2026-04-21 18:58 40.34998 29.68627 20658 ft 386 kts 184°
2026-04-21 18:58 40.32313 29.68648 21230 ft 387 kts 184°
2026-04-21 18:58 40.29610 29.68645 21670 ft 391 kts 185°
2026-04-21 18:58 40.26879 29.68625 22132 ft 393 kts 185°
2026-04-21 18:59 40.24126 29.68608 22568 ft 397 kts 184°
2026-04-21 18:59 40.21353 29.68600 22991 ft 400 kts 185°
2026-04-21 18:59 40.18566 29.68601 23467 ft 402 kts 184°
2026-04-21 18:59 40.15763 29.68766 23934 ft 405 kts 180°
2026-04-21 19:00 40.12928 29.69063 24256 ft 412 kts 179°
2026-04-21 19:00 40.10053 29.69410 24536 ft 418 kts 179°
2026-04-21 19:00 40.07142 29.69776 24927 ft 420 kts 179°
2026-04-21 19:00 40.04232 29.70127 25383 ft 421 kts 179°
2026-04-21 19:01 40.01306 29.70462 25735 ft 424 kts 179°
2026-04-21 19:01 39.98352 29.70788 26071 ft 427 kts 179°
2026-04-21 19:01 39.95386 29.71116 26522 ft 427 kts 179°
2026-04-21 19:01 39.92443 29.71421 27101 ft 421 kts 182°
2026-04-21 19:02 39.89546 29.71228 27479 ft 416 kts 194°
2026-04-21 19:02 39.86773 29.70201 27611 ft 414 kts 208°
2026-04-21 19:02 39.84252 29.68404 27839 ft 414 kts 216°
2026-04-21 19:02 39.81812 29.66394 28131 ft 416 kts 217°
2026-04-21 19:03 39.79373 29.64347 28442 ft 418 kts 217°
2026-04-21 19:03 39.76903 29.62343 28740 ft 421 kts 216°
2026-04-21 19:03 39.74383 29.60385 29041 ft 423 kts 215°
2026-04-21 19:03 39.71841 29.58450 29333 ft 424 kts 215°
2026-04-21 19:04 39.69289 29.56499 29609 ft 426 kts 215°
2026-04-21 19:04 39.66741 29.54527 29888 ft 428 kts 216°
2026-04-21 19:04 39.64196 29.52514 30160 ft 428 kts 217°
2026-04-21 19:04 39.61715 29.50373 30468 ft 428 kts 219°
2026-04-21 19:05 39.59260 29.48208 30825 ft 426 kts 219°
2026-04-21 19:05 39.56815 29.46037 31197 ft 425 kts 219°
2026-04-21 19:05 39.54377 29.43874 31542 ft 424 kts 219°
2026-04-21 19:05 39.51941 29.41727 31886 ft 423 kts 219°
2026-04-21 19:06 39.49503 29.39587 32209 ft 423 kts 219°
2026-04-21 19:06 39.47073 29.37457 32531 ft 422 kts 219°
2026-04-21 19:06 39.44644 29.35327 32855 ft 421 kts 219°
2026-04-21 19:06 39.42224 29.33206 33167 ft 420 kts 219°
2026-04-21 19:07 39.39805 29.31089 33468 ft 419 kts 220°
2026-04-21 19:07 39.37392 29.28975 33758 ft 419 kts 220°
2026-04-21 19:07 39.34979 29.26865 34045 ft 418 kts 220°
2026-04-21 19:07 39.32571 29.24759 34277 ft 418 kts 220°
2026-04-21 19:08 39.30162 29.22656 34523 ft 418 kts 220°
2026-04-21 19:08 39.27720 29.20524 34777 ft 418 kts 220°
2026-04-21 19:08 39.25347 29.18457 35032 ft 417 kts 220°
2026-04-21 19:08 39.22942 29.16363 35252 ft 417 kts 220°
2026-04-21 19:09 39.20507 29.14243 35467 ft 417 kts 220°
2026-04-21 19:09 39.18137 29.12180 35681 ft 416 kts 220°
2026-04-21 19:09 39.15709 29.10070 35898 ft 416 kts 220°
2026-04-21 19:09 39.13302 29.07985 36003 ft 416 kts 220°
2026-04-21 19:10 39.10911 29.05911 35997 ft 415 kts 220°
2026-04-21 19:10 39.06125 29.01756 35994 ft 415 kts 220°
2026-04-21 19:11 39.01326 28.97620 35994 ft 415 kts 220°
2026-04-21 19:11 38.96533 28.93477 35994 ft 415 kts 220°
2026-04-21 19:12 38.92555 28.90045 35999 ft 415 kts 220°
2026-04-21 19:12 38.86945 28.85218 36003 ft 415 kts 220°
2026-04-21 19:13 38.82144 28.81098 36007 ft 415 kts 220°
2026-04-21 19:13 38.77349 28.76986 36027 ft 415 kts 220°
2026-04-21 19:14 38.72553 28.72877 36015 ft 415 kts 220°
2026-04-21 19:14 38.67749 28.68768 35992 ft 415 kts 220°
2026-04-21 19:15 38.62940 28.64671 35962 ft 416 kts 220°
2026-04-21 19:15 38.57804 28.61178 35945 ft 428 kts 202°
2026-04-21 19:15 38.54836 28.60519 35945 ft 440 kts 187°
2026-04-21 19:16 38.51751 28.60719 35960 ft 447 kts 180°
2026-04-21 19:16 38.45554 28.61703 35978 ft 449 kts 179°
2026-04-21 19:17 38.36257 28.62841 36006 ft 447 kts 181°
2026-04-21 19:17 38.30057 28.63505 35965 ft 447 kts 180°
2026-04-21 19:18 38.26971 28.63883 35653 ft 445 kts 180°
2026-04-21 19:18 38.23891 28.64269 35104 ft 444 kts 180°
2026-04-21 19:18 38.20815 28.64644 34503 ft 444 kts 180°
2026-04-21 19:18 38.17739 28.65004 33904 ft 444 kts 180°
2026-04-21 19:19 38.14660 28.65357 33309 ft 444 kts 180°
2026-04-21 19:19 38.11582 28.65713 32699 ft 444 kts 180°
2026-04-21 19:19 38.08510 28.66074 32129 ft 443 kts 180°
2026-04-21 19:19 38.05440 28.66437 31549 ft 442 kts 180°
2026-04-21 19:20 38.02382 28.66799 30983 ft 441 kts 180°
2026-04-21 19:20 37.99291 28.67162 30429 ft 439 kts 180°
2026-04-21 19:20 37.96297 28.67512 29879 ft 437 kts 180°
2026-04-21 19:20 37.93233 28.67869 29297 ft 435 kts 180°
2026-04-21 19:21 37.90222 28.68220 28728 ft 434 kts 180°
2026-04-21 19:21 37.87222 28.68569 28148 ft 432 kts 180°
2026-04-21 19:21 37.84236 28.68917 27600 ft 430 kts 180°
2026-04-21 19:21 37.81264 28.69265 27023 ft 428 kts 180°
2026-04-21 19:22 37.78308 28.69610 26446 ft 426 kts 179°
2026-04-21 19:22 37.75361 28.69955 25896 ft 423 kts 179°
2026-04-21 19:22 37.72440 28.70291 25353 ft 420 kts 180°
2026-04-21 19:22 37.69534 28.70534 24810 ft 416 kts 181°
2026-04-21 19:23 37.66654 28.70738 24262 ft 414 kts 181°
2026-04-21 19:23 37.63791 28.70926 23717 ft 411 kts 181°
2026-04-21 19:23 37.60940 28.71115 23180 ft 409 kts 181°
2026-04-21 19:23 37.58113 28.71312 22673 ft 405 kts 181°
2026-04-21 19:24 37.55316 28.71514 22167 ft 400 kts 181°
2026-04-21 19:24 37.52561 28.71714 21671 ft 395 kts 181°
2026-04-21 19:24 37.49854 28.71637 21190 ft 383 kts 193°
2026-04-21 19:24 37.47337 28.70729 20766 ft 371 kts 204°
2026-04-21 19:25 37.44963 28.69530 20333 ft 365 kts 207°
2026-04-21 19:25 37.42651 28.68264 19899 ft 360 kts 208°
2026-04-21 19:25 37.40367 28.67022 19473 ft 356 kts 207°
2026-04-21 19:25 37.38089 28.65837 19065 ft 354 kts 206°
2026-04-21 19:26 37.36579 28.65076 18794 ft 353 kts 205°
2026-04-21 19:26 37.34298 28.63949 18386 ft 352 kts 205°
2026-04-21 19:26 37.32026 28.62828 17981 ft 350 kts 205°
2026-04-21 19:26 37.29766 28.61698 17602 ft 348 kts 205°
2026-04-21 19:27 37.27521 28.60568 17219 ft 347 kts 205°
2026-04-21 19:27 37.25286 28.59442 16835 ft 346 kts 205°
2026-04-21 19:27 37.22984 28.58561 16439 ft 349 kts 192°
2026-04-21 19:27 37.20548 28.58638 16059 ft 354 kts 173°
2026-04-21 19:28 37.18150 28.59339 15709 ft 354 kts 168°
2026-04-21 19:28 37.15804 28.60193 15488 ft 346 kts 165°
2026-04-21 19:28 37.13690 28.61545 15328 ft 340 kts 143°
2026-04-21 19:28 37.12215 28.63787 15190 ft 332 kts 117°
2026-04-21 19:29 37.11649 28.66521 15025 ft 322 kts 90°
2026-04-21 19:29 37.11986 28.69265 14644 ft 319 kts 72°
2026-04-21 19:29 37.12634 28.71925 14248 ft 319 kts 72°
2026-04-21 19:29 37.13226 28.74590 13945 ft 316 kts 75°
2026-04-21 19:30 37.13689 28.77281 13550 ft 316 kts 78°
2026-04-21 19:30 37.14058 28.79977 13260 ft 312 kts 80°
2026-04-21 19:30 37.14395 28.82659 12883 ft 311 kts 80°
2026-04-21 19:30 37.14740 28.85325 12550 ft 308 kts 80°
2026-04-21 19:31 37.15104 28.87971 12165 ft 307 kts 79°
2026-04-21 19:31 37.15473 28.90578 11863 ft 303 kts 79°
2026-04-21 19:31 37.15796 28.93200 11451 ft 303 kts 87°
2026-04-21 19:31 37.15485 28.95781 11040 ft 301 kts 114°
2026-04-21 19:32 37.14279 28.97854 10751 ft 291 kts 139°
2026-04-21 19:32 37.12747 28.99423 10642 ft 279 kts 144°
2026-04-21 19:32 37.11243 29.00877 10506 ft 269 kts 143°
2026-04-21 19:32 37.09818 29.02385 10148 ft 269 kts 140°
2026-04-21 19:33 37.08441 29.03966 9774 ft 268 kts 141°
2026-04-21 19:33 37.06845 29.05086 9398 ft 262 kts 168°
2026-04-21 19:33 37.05064 29.05059 8996 ft 256 kts 199°
2026-04-21 19:33 37.03591 29.03906 8554 ft 250 kts 229°
2026-04-21 19:34 37.02508 29.02218 8123 ft 248 kts 233°
2026-04-21 19:34 37.01414 29.00557 7687 ft 247 kts 228°
2026-04-21 19:34 37.00188 28.99057 7253 ft 246 kts 224°
2026-04-21 19:34 36.98930 28.97641 6922 ft 239 kts 223°
2026-04-21 19:35 36.97750 28.96265 6797 ft 224 kts 226°
2026-04-21 19:35 36.95669 28.93673 6441 ft 203 kts 226°
2026-04-21 19:35 36.94664 28.92447 6105 ft 201 kts 226°
2026-04-21 19:36 36.93663 28.91241 5755 ft 199 kts 226°
2026-04-21 19:36 36.92673 28.90034 5404 ft 198 kts 226°
2026-04-21 19:36 36.91689 28.88832 5053 ft 197 kts 226°
2026-04-21 19:36 36.90711 28.87639 4704 ft 196 kts 226°
2026-04-21 19:37 36.89738 28.86450 4376 ft 195 kts 226°
2026-04-21 19:37 36.88741 28.85322 4077 ft 193 kts 220°
2026-04-21 19:37 36.87588 28.84462 3790 ft 192 kts 205°
2026-04-21 19:37 36.86310 28.84098 3587 ft 185 kts 191°
2026-04-21 19:38 36.85055 28.83832 3303 ft 183 kts 192°
2026-04-21 19:38 36.83800 28.83567 2977 ft 183 kts 192°
2026-04-21 19:38 36.82538 28.83283 2593 ft 185 kts 194°
2026-04-21 19:38 36.81288 28.82898 2178 ft 180 kts 197°
2026-04-21 19:39 36.80126 28.82450 1928 ft 167 kts 200°
2026-04-21 19:39 36.79080 28.82012 1718 ft 155 kts 200°
2026-04-21 19:39 36.78066 28.81587 1449 ft 150 kts 199°
2026-04-21 19:39 36.77072 28.81191 1140 ft 150 kts 197°
2026-04-21 19:40 36.76054 28.80833 781 ft 153 kts 195°
2026-04-21 19:40 36.75028 28.80514 504 ft 150 kts 194°
2026-04-21 19:40 36.74032 28.80191 277 ft 146 kts 195°
2026-04-21 19:40 36.73080 28.79855 107 ft 144 kts 196°
2026-04-21 19:41 36.72122 28.79527 36 ft 133 kts 195°
2026-04-21 19:41 36.71392 28.79278 34 ft 83 kts 195°
2026-04-21 19:41 36.70930 28.79119 34 ft 53 kts 195°
2026-04-21 19:41 36.70694 28.79015 34 ft 27 kts 216°
2026-04-21 19:42 36.70571 28.78872 34 ft 18 kts 237°
2026-04-21 19:42 36.70622 28.78799 34 ft 14 kts 18°
2026-04-21 19:42 36.70717 28.78838 34 ft 15 kts 18°
2026-04-21 19:42 36.70817 28.78874 34 ft 15 kts 13°
2026-04-21 19:43 36.70923 28.78904 34 ft 16 kts 15°
2026-04-21 19:43 36.71032 28.78942 34 ft 17 kts 15°
2026-04-21 19:43 36.71146 28.78981 34 ft 17 kts 15°
2026-04-21 19:43 36.71264 28.79021 34 ft 18 kts 15°
2026-04-21 19:44 36.71387 28.79062 34 ft 19 kts 15°
2026-04-21 19:44 36.71516 28.79105 34 ft 20 kts 15°
2026-04-21 19:44 36.71650 28.79150 34 ft 20 kts 15°
2026-04-21 19:44 36.71783 28.79195 34 ft 15 kts 15°
2026-04-21 19:45 36.71860 28.79212 34 ft 10 kts 341°
2026-04-21 19:45 36.71884 28.79140 34 ft 9 kts 284°
2026-04-21 19:45 36.71902 28.79059 34 ft 10 kts 291°
2026-04-21 19:45 36.71954 28.79040 34 ft 9 kts 16°
2026-04-21 19:46 36.72013 28.79061 34 ft 9 kts 15°
2026-04-21 19:46 36.72069 28.79066 34 ft 7 kts 315°
2026-04-21 19:46 36.72081 28.79020 34 ft 5 kts 287°
2026-04-21 19:46 36.72084 28.79007 34 ft 0 kts 286°